Time,TemperatureF,DewpointF,PressureIn,WindDirection,WindDirectionDegrees,WindSpeedMPH,WindSpeedGustMPH,Humidity,HourlyPrecipIn,Conditions,Clouds,dailyrainin,SoftwareType,DateUTC
2013-02-27 00:01:00,33.3,28.1,29.56,North,351,2.5,4.3,81,-99.99,,,-99.99,WSDL version 423,2013-02-27 05:01:00,
2013-02-27 00:05:00,33.1,28.0,29.56,North,357,1.3,4.0,81,-99.99,,,-99.99,WSDL version 423,2013-02-27 05:05:00,
2013-02-27 00:10:00,33.1,27.9,29.56,NNE,20,0.7,3.1,81,-99.99,,,-99.99,WSDL version 423,2013-02-27 05:10:00,
2013-02-27 00:15:00,32.8,27.7,29.56,North,354,0.2,2.9,82,-99.99,,,-99.99,WSDL version 423,2013-02-27 05:15:00,
2013-02-27 00:20:00,32.7,27.9,29.56,NNW,330,0.7,2.7,82,-99.99,,,-99.99,WSDL version 423,2013-02-27 05:20:00,
2013-02-27 00:25:00,32.7,27.8,29.56,NNW,330,0.0,2.5,82,-99.99,,,-99.99,WSDL version 423,2013-02-27 05:25:00,
2013-02-27 00:30:00,32.5,27.9,29.56,North,354,0.2,2.0,83,-99.99,,,-99.99,WSDL version 423,2013-02-27 05:30:00,
2013-02-27 00:35:00,32.5,28.1,29.56,North,357,1.4,2.7,83,-99.99,,,-99.99,WSDL version 423,2013-02-27 05:35:00,
2013-02-27 00:40:00,32.5,28.3,29.53,NNW,344,2.1,2.7,84,-99.99,,,-99.99,WSDL version 423,2013-02-27 05:40:00,
2013-02-27 00:45:00,32.4,28.3,29.53,North,358,1.7,3.4,86,-99.99,,,-99.99,WSDL version 423,2013-02-27 05:45:00,
2013-02-27 00:50:00,32.4,28.6,29.53,North,349,2.2,3.4,86,-99.99,,,-99.99,WSDL version 423,2013-02-27 05:50:00,
2013-02-27 00:55:00,32.4,28.6,29.56,North,358,0.2,2.9,86,-99.99,,,-99.99,WSDL version 423,2013-02-27 05:55:00,
2013-02-27 01:00:00,32.5,28.6,29.56,NNW,343,1.5,2.5,86,-99.99,,,-99.99,WSDL version 423,2013-02-27 06:00:00,
2013-02-27 01:05:00,32.5,28.7,29.56,North,352,0.0,2.5,86,-99.99,,,-99.99,WSDL version 423,2013-02-27 06:05:00,
2013-02-27 01:10:00,32.5,28.7,29.53,NNW,340,1.0,2.5,86,-99.99,,,-99.99,WSDL version 423,2013-02-27 06:10:00,
2013-02-27 01:15:00,32.4,28.5,29.53,NNW,348,0.6,2.5,84,-99.99,,,-99.99,WSDL version 423,2013-02-27 06:15:00,
2013-02-27 01:20:00,32.4,28.2,29.53,North,8,1.1,2.2,84,-99.99,,,-99.99,WSDL version 423,2013-02-27 06:20:00,
2013-02-27 01:25:00,32.4,28.2,29.56,North,360,0.5,2.2,84,-99.99,,,-99.99,WSDL version 423,2013-02-27 06:25:00,
2013-02-27 01:30:00,32.4,28.3,29.56,NNW,343,2.2,3.8,86,-99.99,,,-99.99,WSDL version 423,2013-02-27 06:30:00,
2013-02-27 01:35:00,32.5,28.6,29.56,NNW,335,0.7,3.8,86,-99.99,,,-99.99,WSDL version 423,2013-02-27 06:35:00,
2013-02-27 01:40:00,32.5,28.7,29.53,North,354,0.5,3.4,86,-99.99,,,-99.99,WSDL version 423,2013-02-27 06:40:00,
2013-02-27 01:45:00,32.4,28.6,29.53,NNW,343,1.8,3.1,86,-99.99,,,-99.99,WSDL version 423,2013-02-27 06:45:00,
2013-02-27 01:50:00,32.4,28.6,29.53,NNW,332,1.0,3.4,86,-99.99,,,-99.99,WSDL version 423,2013-02-27 06:50:00,
2013-02-27 01:55:00,32.5,28.7,29.53,North,5,2.3,3.4,86,-99.99,,,-99.99,WSDL version 423,2013-02-27 06:55:00,
2013-02-27 02:00:00,32.5,28.7,29.53,NNW,340,2.3,3.1,86,-99.99,,,-99.99,WSDL version 423,2013-02-27 07:00:00,
2013-02-27 02:05:00,32.4,28.6,29.53,NNW,338,1.0,3.1,86,-99.99,,,-99.99,WSDL version 423,2013-02-27 07:05:00,
2013-02-27 02:10:00,32.3,28.5,29.53,NNW,343,1.4,4.3,86,-99.99,,,-99.99,WSDL version 423,2013-02-27 07:10:00,
2013-02-27 02:16:00,32.2,28.4,29.53,NNE,20,0.0,4.3,86,-99.99,,,-99.99,WSDL version 423,2013-02-27 07:16:00,
2013-02-27 02:25:00,31.9,28.5,29.53,North,352,1.1,3.1,86,-99.99,,,-99.99,WSDL version 423,2013-02-27 07:25:00,
2013-02-27 02:30:00,31.6,28.3,29.53,NNW,348,1.3,4.0,86,-99.99,,,-99.99,WSDL version 423,2013-02-27 07:30:00,
2013-02-27 02:35:00,31.7,28.5,29.53,North,6,1.7,4.0,87,-99.99,,,-99.99,WSDL version 423,2013-02-27 07:35:00,
2013-02-27 02:40:00,31.6,28.5,29.53,NNW,345,2.3,4.3,87,-99.99,,,-99.99,WSDL version 423,2013-02-27 07:40:00,
2013-02-27 02:45:00,31.7,28.8,29.53,NNW,345,2.8,5.6,88,-99.99,,,-99.99,WSDL version 423,2013-02-27 07:45:00,
2013-02-27 02:50:00,31.8,29.0,29.53,NNW,348,2.8,5.6,88,-99.99,,,-99.99,WSDL version 423,2013-02-27 07:50:00,
2013-02-27 02:55:00,31.7,28.7,29.50,North,6,1.5,4.3,87,-99.99,,,-99.99,WSDL version 423,2013-02-27 07:55:00,
2013-02-27 03:00:00,31.6,28.5,29.50,North,354,1.9,4.3,87,-99.99,,,-99.99,WSDL version 423,2013-02-27 08:00:00,
2013-02-27 03:05:00,31.4,28.3,29.50,North,8,0.0,3.8,87,-99.99,,,-99.99,WSDL version 423,2013-02-27 08:05:00,
2013-02-27 03:10:00,31.4,28.3,29.50,NE,34,1.5,5.6,87,-99.99,,,-99.99,WSDL version 423,2013-02-27 08:10:00,
2013-02-27 03:15:00,31.3,28.2,29.50,NE,48,1.6,5.6,87,-99.99,,,-99.99,WSDL version 423,2013-02-27 08:15:00,
2013-02-27 03:20:00,31.3,28.2,29.50,North,360,2.5,4.5,87,-99.99,,,-99.99,WSDL version 423,2013-02-27 08:20:00,
2013-02-27 03:25:00,31.2,28.1,29.50,ENE,59,3.8,8.7,87,-99.99,,,-99.99,WSDL version 423,2013-02-27 08:25:00,
2013-02-27 03:30:00,31.4,28.3,29.50,North,352,3.1,8.7,87,-99.99,,,-99.99,WSDL version 423,2013-02-27 08:30:00,
2013-02-27 03:35:00,31.5,28.1,29.50,NW,325,3.3,6.5,86,-99.99,,,-99.99,WSDL version 423,2013-02-27 08:35:00,
2013-02-27 03:40:00,31.5,27.8,29.50,NNW,338,3.6,6.5,84,-99.99,,,-99.99,WSDL version 423,2013-02-27 08:40:00,
2013-02-27 03:45:00,31.6,27.7,29.50,NNW,343,3.5,8.7,83,-99.99,,,-99.99,WSDL version 423,2013-02-27 08:45:00,
2013-02-27 03:50:00,31.6,27.5,29.50,NNW,348,3.8,8.7,82,-99.99,,,-99.99,WSDL version 423,2013-02-27 08:50:00,
2013-02-27 03:55:00,31.5,27.0,29.47,North,349,3.1,7.2,81,-99.99,,,-99.99,WSDL version 423,2013-02-27 08:55:00,
2013-02-27 04:00:00,31.5,26.7,29.47,NNW,344,3.4,7.4,80,-99.99,,,-99.99,WSDL version 423,2013-02-27 09:00:00,
2013-02-27 04:05:00,31.5,26.6,29.47,North,8,2.8,7.4,80,-99.99,,,-99.99,WSDL version 423,2013-02-27 09:05:00,
2013-02-27 04:10:00,31.4,26.4,29.47,North,3,4.1,7.4,79,-99.99,,,-99.99,WSDL version 423,2013-02-27 09:10:00,
2013-02-27 04:15:00,31.5,26.4,29.47,North,8,4.0,7.4,79,-99.99,,,-99.99,WSDL version 423,2013-02-27 09:15:00,
2013-02-27 04:20:00,31.4,26.3,29.47,North,350,4.5,8.1,78,-99.99,,,-99.99,WSDL version 423,2013-02-27 09:20:00,
2013-02-27 04:25:00,31.5,26.1,29.47,North,8,5.4,8.7,77,-99.99,,,-99.99,WSDL version 423,2013-02-27 09:25:00,
2013-02-27 04:30:00,31.5,25.9,29.47,NNW,340,3.6,8.7,77,-99.99,,,-99.99,WSDL version 423,2013-02-27 09:30:00,
2013-02-27 04:35:00,31.6,25.7,29.47,NNW,340,3.9,7.8,76,-99.99,,,-99.99,WSDL version 423,2013-02-27 09:35:00,
2013-02-27 04:40:00,31.7,25.5,29.47,North,350,4.6,8.1,75,-99.99,,,-99.99,WSDL version 423,2013-02-27 09:40:00,
2013-02-27 04:45:00,31.8,25.4,29.47,NNW,343,4.0,8.1,74,-99.99,,,-99.99,WSDL version 423,2013-02-27 09:45:00,
2013-02-27 04:50:00,31.8,25.3,29.47,NE,48,5.1,12.1,74,-99.99,,,-99.99,WSDL version 423,2013-02-27 09:50:00,
2013-02-27 04:55:00,31.8,25.2,29.47,North,357,2.4,12.1,74,-99.99,,,-99.99,WSDL version 423,2013-02-27 09:55:00,
2013-02-27 05:00:00,31.6,25.2,29.47,North,10,2.4,5.4,74,-99.99,,,-99.99,WSDL version 423,2013-02-27 10:00:00,
2013-02-27 05:05:00,31.6,25.2,29.47,North,3,3.6,8.9,74,-99.99,,,-99.99,WSDL version 423,2013-02-27 10:05:00,
2013-02-27 05:10:00,31.6,24.9,29.47,NNW,348,4.2,8.9,73,-99.99,,,-99.99,WSDL version 423,2013-02-27 10:10:00,
2013-02-27 05:15:00,31.6,24.8,29.47,NE,35,3.4,6.0,73,-99.99,,,-99.99,WSDL version 423,2013-02-27 10:15:00,
2013-02-27 05:20:00,31.5,24.7,29.47,North,360,3.2,7.4,73,-99.99,,,-99.99,WSDL version 423,2013-02-27 10:20:00,
2013-02-27 05:25:00,31.5,24.7,29.47,North,355,5.3,8.1,72,-99.99,,,-99.99,WSDL version 423,2013-02-27 10:25:00,
2013-02-27 05:30:00,31.5,24.4,29.47,NNW,346,2.7,8.1,72,-99.99,,,-99.99,WSDL version 423,2013-02-27 10:30:00,
2013-02-27 05:36:00,31.3,24.3,29.47,NNE,18,4.4,9.6,72,-99.99,,,-99.99,WSDL version 423,2013-02-27 10:36:00,
2013-02-27 05:40:00,31.3,24.2,29.47,NNE,13,4.0,9.6,72,-99.99,,,-99.99,WSDL version 423,2013-02-27 10:40:00,
2013-02-27 05:45:00,31.3,24.2,29.47,North,350,4.2,8.7,72,-99.99,,,-99.99,WSDL version 423,2013-02-27 10:45:00,
2013-02-27 05:50:00,31.1,24.3,29.47,NNE,14,4.9,7.4,73,-99.99,,,-99.99,WSDL version 423,2013-02-27 10:50:00,
2013-02-27 05:55:00,31.1,24.3,29.44,North,3,3.9,8.1,73,-99.99,,,-99.99,WSDL version 423,2013-02-27 10:55:00,
2013-02-27 06:00:00,31.0,24.3,29.44,North,5,3.5,8.1,73,-99.99,,,-99.99,WSDL version 423,2013-02-27 11:00:00,
2013-02-27 06:05:00,30.8,24.1,29.44,NNW,338,4.9,10.1,73,-99.99,,,-99.99,WSDL version 423,2013-02-27 11:05:00,
2013-02-27 06:10:00,31.0,24.2,29.44,North,355,5.2,10.1,73,-99.99,,,-99.99,WSDL version 423,2013-02-27 11:10:00,
2013-02-27 06:15:00,31.1,24.3,29.44,North,350,5.2,8.7,73,-99.99,,,-99.99,WSDL version 423,2013-02-27 11:15:00,
2013-02-27 06:20:00,31.2,24.2,29.44,NNW,345,4.2,10.5,72,-99.99,,,-99.99,WSDL version 423,2013-02-27 11:20:00,
2013-02-27 06:25:00,31.1,24.3,29.44,North,358,4.4,12.1,73,-99.99,,,-99.99,WSDL version 423,2013-02-27 11:25:00,
2013-02-27 06:30:00,31.3,24.2,29.44,North,360,4.8,12.1,72,-99.99,,,-99.99,WSDL version 423,2013-02-27 11:30:00,
2013-02-27 06:35:00,31.3,24.3,29.44,North,355,4.1,8.7,72,-99.99,,,-99.99,WSDL version 423,2013-02-27 11:35:00,
2013-02-27 06:40:00,31.3,24.2,29.41,North,354,4.5,7.8,72,-99.99,,,-99.99,WSDL version 423,2013-02-27 11:40:00,
2013-02-27 06:46:00,31.3,24.2,29.41,NNW,348,4.5,8.7,72,-99.99,,,-99.99,WSDL version 423,2013-02-27 11:46:00,
2013-02-27 06:50:00,31.3,24.2,29.41,NNE,14,4.7,8.7,72,-99.99,,,-99.99,WSDL version 423,2013-02-27 11:50:00,
2013-02-27 06:55:00,31.3,24.2,29.44,North,357,3.8,8.1,72,-99.99,,,-99.99,WSDL version 423,2013-02-27 11:55:00,
2013-02-27 07:00:00,31.2,24.2,29.44,NNW,328,4.7,9.6,72,-99.99,,,-99.99,WSDL version 423,2013-02-27 12:00:00,
2013-02-27 07:05:00,31.3,24.1,29.44,NNW,343,7.2,9.6,71,-99.99,,,-99.99,WSDL version 423,2013-02-27 12:05:00,
2013-02-27 07:10:00,31.5,24.1,29.41,NNW,338,5.1,9.6,71,-99.99,,,-99.99,WSDL version 423,2013-02-27 12:10:00,
2013-02-27 07:15:00,31.6,24.2,29.41,North,353,4.2,7.6,71,-99.99,,,-99.99,WSDL version 423,2013-02-27 12:15:00,
2013-02-27 07:20:00,31.8,24.4,29.41,NNE,18,3.2,7.8,71,-99.99,,,-99.99,WSDL version 423,2013-02-27 12:20:00,
2013-02-27 07:25:00,32.0,24.6,29.41,NNW,343,3.2,7.8,71,-99.99,,,-99.99,WSDL version 423,2013-02-27 12:25:00,
2013-02-27 07:30:00,32.0,24.5,29.41,North,353,3.4,6.3,71,-99.99,,,-99.99,WSDL version 423,2013-02-27 12:30:00,
2013-02-27 07:35:00,32.2,23.6,29.41,NNW,338,2.8,6.3,70,-99.99,,,-99.99,WSDL version 423,2013-02-27 12:35:00,
2013-02-27 07:40:00,32.3,23.6,29.41,North,355,3.1,6.0,70,-99.99,,,-99.99,WSDL version 423,2013-02-27 12:40:00,
2013-02-27 07:45:00,32.5,23.5,29.41,North,358,3.4,5.8,69,-99.99,,,-99.99,WSDL version 423,2013-02-27 12:45:00,
2013-02-27 07:50:00,32.7,23.6,29.41,North,350,3.3,7.6,69,-99.99,,,-99.99,WSDL version 423,2013-02-27 12:50:00,
2013-02-27 07:55:00,32.8,23.4,29.41,NE,53,2.1,7.6,68,-99.99,,,-99.99,WSDL version 423,2013-02-27 12:55:00,
2013-02-27 08:00:00,33.0,23.9,29.41,North,11,2.4,5.4,68,-99.99,,,-99.99,WSDL version 423,2013-02-27 13:00:00,
2013-02-27 08:05:00,33.1,23.4,29.41,North,8,3.7,6.5,67,-99.99,,,-99.99,WSDL version 423,2013-02-27 13:05:00,
2013-02-27 08:10:00,33.1,23.1,29.41,North,3,3.6,6.5,66,-99.99,,,-99.99,WSDL version 423,2013-02-27 13:10:00,
2013-02-27 08:15:00,33.1,22.9,29.41,North,360,3.8,9.6,66,-99.99,,,-99.99,WSDL version 423,2013-02-27 13:15:00,
2013-02-27 08:20:00,33.4,23.0,29.41,North,350,5.9,9.6,65,-99.99,,,-99.99,WSDL version 423,2013-02-27 13:20:00,
2013-02-27 08:25:00,33.5,23.2,29.41,North,358,1.3,8.1,66,-99.99,,,-99.99,WSDL version 423,2013-02-27 13:25:00,
2013-02-27 08:30:00,33.9,23.5,29.41,North,357,3.4,6.0,65,-99.99,,,-99.99,WSDL version 423,2013-02-27 13:30:00,
2013-02-27 08:35:00,34.0,22.9,29.41,North,350,3.6,7.4,64,-99.99,,,-99.99,WSDL version 423,2013-02-27 13:35:00,
2013-02-27 08:40:00,34.1,22.8,29.41,NE,35,3.3,7.4,63,-99.99,,,-99.99,WSDL version 423,2013-02-27 13:40:00,
2013-02-27 08:45:00,34.0,22.4,29.41,North,353,5.3,10.5,62,-99.99,,,-99.99,WSDL version 423,2013-02-27 13:45:00,
2013-02-27 08:50:00,34.0,22.6,29.41,North,352,3.9,10.5,63,-99.99,,,-99.99,WSDL version 423,2013-02-27 13:50:00,
2013-02-27 08:55:00,33.9,22.2,29.41,North,350,5.6,8.7,62,-99.99,,,-99.99,WSDL version 423,2013-02-27 13:55:00,
2013-02-27 09:00:00,33.9,22.6,29.41,North,353,4.2,8.7,63,-99.99,,,-99.99,WSDL version 423,2013-02-27 14:00:00,
2013-02-27 09:05:00,33.9,22.5,29.41,North,6,4.3,10.3,63,-99.99,,,-99.99,WSDL version 423,2013-02-27 14:05:00,
2013-02-27 09:10:00,34.1,22.9,29.41,North,2,4.7,10.3,63,-99.99,,,-99.99,WSDL version 423,2013-02-27 14:10:00,
2013-02-27 09:15:00,34.2,22.5,29.41,North,352,5.1,8.5,62,-99.99,,,-99.99,WSDL version 423,2013-02-27 14:15:00,
2013-02-27 09:20:00,34.2,22.5,29.41,NNE,13,5.1,8.5,62,-99.99,,,-99.99,WSDL version 423,2013-02-27 14:20:00,
2013-02-27 09:25:00,34.1,22.4,29.38,North,349,4.7,8.1,62,-99.99,,,-99.99,WSDL version 423,2013-02-27 14:25:00,
2013-02-27 09:30:00,33.9,22.4,29.38,NNW,340,5.7,7.8,62,-99.99,,,-99.99,WSDL version 423,2013-02-27 14:30:00,
2013-02-27 09:35:00,33.7,22.3,29.38,North,356,6.6,10.5,63,-99.99,,,-99.99,WSDL version 423,2013-02-27 14:35:00,
2013-02-27 09:40:00,33.6,22.5,29.38,North,360,5.2,10.5,64,-99.99,,,-99.99,WSDL version 423,2013-02-27 14:40:00,
2013-02-27 09:45:00,33.7,22.6,29.38,NNW,343,5.7,8.7,63,-99.99,,,-99.99,WSDL version 423,2013-02-27 14:45:00,
2013-02-27 09:50:00,33.7,22.5,29.38,NNW,343,6.4,12.8,64,-99.99,,,-99.99,WSDL version 423,2013-02-27 14:50:00,
2013-02-27 09:55:00,33.6,22.6,29.38,North,350,6.2,12.8,63,-99.99,,,-99.99,WSDL version 423,2013-02-27 14:55:00,
2013-02-27 10:00:00,33.7,22.5,29.38,NNW,345,4.8,8.7,63,-99.99,,,-99.99,WSDL version 423,2013-02-27 15:00:00,
2013-02-27 10:05:00,33.7,22.2,29.38,NNW,345,6.3,10.7,62,-99.99,,,-99.99,WSDL version 423,2013-02-27 15:05:00,
2013-02-27 10:10:00,33.8,22.2,29.38,North,355,6.5,11.0,62,-99.99,,,-99.99,WSDL version 423,2013-02-27 15:10:00,
2013-02-27 10:15:00,34.0,22.2,29.38,NNW,348,6.0,11.0,61,-99.99,,,-99.99,WSDL version 423,2013-02-27 15:15:00,
2013-02-27 10:20:00,34.0,22.1,29.38,NNW,340,4.1,10.3,62,-99.99,,,-99.99,WSDL version 423,2013-02-27 15:20:00,
2013-02-27 10:25:00,34.0,21.8,29.38,North,358,7.9,10.5,60,-99.99,,,-99.99,WSDL version 423,2013-02-27 15:25:00,
2013-02-27 10:30:00,34.0,21.9,29.38,NNW,338,4.3,10.5,61,-99.99,,,-99.99,WSDL version 423,2013-02-27 15:30:00,
2013-02-27 10:35:00,34.3,22.1,29.38,North,360,4.2,7.8,60,-99.99,,,-99.99,WSDL version 423,2013-02-27 15:35:00,
2013-02-27 10:40:00,34.4,21.7,29.38,North,349,5.8,6.9,59,-99.99,,,-99.99,WSDL version 423,2013-02-27 15:40:00,
2013-02-27 10:45:00,34.4,21.4,29.38,North,355,6.6,13.0,58,-99.99,,,-99.99,WSDL version 423,2013-02-27 15:45:00,
2013-02-27 10:50:00,34.3,21.2,29.38,NNW,348,5.4,13.0,59,-99.99,,,-99.99,WSDL version 423,2013-02-27 15:50:00,
2013-02-27 10:55:00,34.5,21.2,29.38,North,354,5.3,9.8,58,-99.99,,,-99.99,WSDL version 423,2013-02-27 15:55:00,
2013-02-27 11:00:00,34.9,21.4,29.38,North,355,6.9,10.3,57,-99.99,,,-99.99,WSDL version 423,2013-02-27 16:00:00,
2013-02-27 11:05:00,35.2,21.5,29.38,North,3,4.5,10.3,57,-99.99,,,-99.99,WSDL version 423,2013-02-27 16:05:00,
2013-02-27 11:11:00,35.8,21.9,29.38,North,6,3.6,7.6,56,-99.99,,,-99.99,WSDL version 423,2013-02-27 16:11:00,
2013-02-27 11:20:00,36.1,21.1,29.38,North,351,6.5,9.8,54,-99.99,,,-99.99,WSDL version 423,2013-02-27 16:20:00,
2013-02-27 11:25:00,36.2,20.8,29.35,North,3,8.1,13.9,53,-99.99,,,-99.99,WSDL version 423,2013-02-27 16:25:00,
2013-02-27 11:30:00,36.4,20.9,29.35,NNW,343,7.2,13.9,52,-99.99,,,-99.99,WSDL version 423,2013-02-27 16:30:00,
2013-02-27 11:35:00,36.3,20.6,29.35,North,358,6.2,12.1,53,-99.99,,,-99.99,WSDL version 423,2013-02-27 16:35:00,
2013-02-27 11:41:00,36.7,20.9,29.35,North,354,4.6,9.8,53,-99.99,,,-99.99,WSDL version 423,2013-02-27 16:41:00,
2013-02-27 11:46:00,37.0,21.0,29.35,North,350,4.1,9.8,52,-99.99,,,-99.99,WSDL version 423,2013-02-27 16:46:00,
2013-02-27 11:50:00,36.7,20.7,29.35,NNW,340,5.5,10.5,52,-99.99,,,-99.99,WSDL version 423,2013-02-27 16:50:00,
2013-02-27 11:56:00,36.9,20.9,29.35,NNW,343,5.6,10.5,52,-99.99,,,-99.99,WSDL version 423,2013-02-27 16:56:00,
2013-02-27 12:00:00,36.8,20.4,29.35,NNW,345,6.0,11.0,51,-99.99,,,-99.99,WSDL version 423,2013-02-27 17:00:00,
2013-02-27 12:05:00,37.0,20.5,29.35,North,6,6.3,11.0,51,-99.99,,,-99.99,WSDL version 423,2013-02-27 17:05:00,
2013-02-27 12:11:00,37.3,20.8,29.35,North,350,5.0,12.3,51,-99.99,,,-99.99,WSDL version 423,2013-02-27 17:11:00,
2013-02-27 12:16:00,37.3,20.4,29.35,North,360,9.0,12.5,50,-99.99,,,-99.99,WSDL version 423,2013-02-27 17:16:00,
2013-02-27 12:21:00,37.0,20.0,29.35,NNW,328,7.4,15.2,50,-99.99,,,-99.99,WSDL version 423,2013-02-27 17:21:00,
2013-02-27 12:25:00,37.0,20.5,29.35,North,6,4.9,15.2,51,-99.99,,,-99.99,WSDL version 423,2013-02-27 17:25:00,
2013-02-27 12:30:00,37.0,20.6,29.35,North,10,4.2,10.7,51,-99.99,,,-99.99,WSDL version 423,2013-02-27 17:30:00,
2013-02-27 12:36:00,36.9,20.4,29.35,North,350,7.5,10.1,51,-99.99,,,-99.99,WSDL version 423,2013-02-27 17:36:00,
2013-02-27 12:41:00,36.7,20.6,29.32,North,358,4.6,10.1,52,-99.99,,,-99.99,WSDL version 423,2013-02-27 17:41:00,
2013-02-27 12:46:00,36.7,20.8,29.32,NNW,345,5.9,10.3,52,-99.99,,,-99.99,WSDL version 423,2013-02-27 17:46:00,
2013-02-27 12:51:00,36.4,20.8,29.32,North,6,5.3,11.0,53,-99.99,,,-99.99,WSDL version 423,2013-02-27 17:51:00,
2013-02-27 12:56:00,36.4,21.3,29.32,NNW,348,9.2,12.8,54,-99.99,,,-99.99,WSDL version 423,2013-02-27 17:56:00,
2013-02-27 13:01:00,36.5,21.6,29.32,North,352,6.1,12.8,55,-99.99,,,-99.99,WSDL version 423,2013-02-27 18:01:00,
2013-02-27 13:06:00,36.3,22.0,29.32,North,5,8.2,13.0,56,-99.99,,,-99.99,WSDL version 423,2013-02-27 18:06:00,
2013-02-27 13:10:00,36.0,22.5,29.32,North,349,7.2,13.0,59,-99.99,,,-99.99,WSDL version 423,2013-02-27 18:10:00,
2013-02-27 13:15:00,35.6,23.2,29.32,North,358,5.4,12.3,61,-99.99,,,-99.99,WSDL version 423,2013-02-27 18:15:00,
2013-02-27 13:20:00,35.5,24.2,29.32,North,358,5.3,10.3,65,-99.99,,,-99.99,WSDL version 423,2013-02-27 18:20:00,
2013-02-27 13:25:00,35.2,25.5,29.32,North,350,7.4,12.1,69,-99.99,,,-99.99,WSDL version 423,2013-02-27 18:25:00,
2013-02-27 13:30:00,34.9,26.5,29.32,NNW,333,5.8,12.1,72,-99.99,,,-99.99,WSDL version 423,2013-02-27 18:30:00,
2013-02-27 13:35:00,34.8,26.9,29.32,North,354,6.2,12.3,74,-99.99,,,-99.99,WSDL version 423,2013-02-27 18:35:00,
2013-02-27 13:40:00,34.5,27.3,29.32,North,360,4.7,12.3,75,-99.99,,,-99.99,WSDL version 423,2013-02-27 18:40:00,
2013-02-27 13:45:00,34.5,27.6,29.32,North,8,5.2,8.7,76,-99.99,,,-99.99,WSDL version 423,2013-02-27 18:45:00,
2013-02-27 13:51:00,34.6,27.7,29.32,North,357,4.8,8.7,76,-99.99,,,-99.99,WSDL version 423,2013-02-27 18:51:00,
2013-02-27 13:55:00,35.0,27.8,29.29,North,350,3.7,8.1,74,-99.99,,,-99.99,WSDL version 423,2013-02-27 18:55:00,
2013-02-27 14:00:00,35.5,27.4,29.29,NNW,340,3.4,8.7,72,-99.99,,,-99.99,WSDL version 423,2013-02-27 19:00:00,
2013-02-27 14:06:00,35.7,25.7,29.29,NNW,348,5.8,8.7,64,-99.99,,,-99.99,WSDL version 423,2013-02-27 19:06:00,
2013-02-27 14:10:00,36.1,24.0,29.29,NNW,338,6.3,10.7,58,-99.99,,,-99.99,WSDL version 423,2013-02-27 19:10:00,
2013-02-27 14:15:00,36.3,22.9,29.29,North,353,6.9,10.7,58,-99.99,,,-99.99,WSDL version 423,2013-02-27 19:15:00,
2013-02-27 14:21:00,36.5,22.7,29.29,North,350,6.8,11.0,57,-99.99,,,-99.99,WSDL version 423,2013-02-27 19:21:00,
2013-02-27 14:31:00,36.8,23.3,29.29,North,353,6.1,10.3,58,-99.99,,,-99.99,WSDL version 423,2013-02-27 19:31:00,
2013-02-27 14:36:00,36.6,23.0,29.29,North,11,4.8,10.7,58,-99.99,,,-99.99,WSDL version 423,2013-02-27 19:36:00,
2013-02-27 14:41:00,36.4,23.8,29.29,NNW,345,8.0,13.0,61,-99.99,,,-99.99,WSDL version 423,2013-02-27 19:41:00,
2013-02-27 14:46:00,36.1,24.7,29.29,North,357,5.7,13.0,64,-99.99,,,-99.99,WSDL version 423,2013-02-27 19:46:00,
2013-02-27 14:51:00,35.7,25.2,29.29,NNE,14,6.4,9.8,67,-99.99,,,-99.99,WSDL version 423,2013-02-27 19:51:00,
2013-02-27 14:56:00,35.4,26.7,29.29,North,358,5.9,9.8,73,-99.99,,,-99.99,WSDL version 423,2013-02-27 19:56:00,
2013-02-27 15:01:00,35.0,27.8,29.29,North,352,4.6,8.7,77,-99.99,,,-99.99,WSDL version 423,2013-02-27 20:01:00,
2013-02-27 15:11:00,34.0,29.8,29.29,North,357,4.8,11.0,86,-99.99,,,-99.99,WSDL version 423,2013-02-27 20:11:00,
2013-02-27 15:16:00,33.8,30.6,29.29,North,360,6.8,12.3,89,-99.99,,,-99.99,WSDL version 423,2013-02-27 20:16:00,
2013-02-27 15:21:00,33.6,31.1,29.29,NNE,17,5.8,12.3,91,-99.99,,,-99.99,WSDL version 423,2013-02-27 20:21:00,
2013-02-27 15:26:00,33.6,31.4,29.26,North,354,6.4,8.7,92,-99.99,,,-99.99,WSDL version 423,2013-02-27 20:26:00,
2013-02-27 15:31:00,33.6,31.6,29.26,North,357,5.3,9.6,92,-99.99,,,-99.99,WSDL version 423,2013-02-27 20:31:00,
2013-02-27 15:36:00,33.5,31.9,29.26,NNW,346,4.5,9.6,94,-99.99,,,-99.99,WSDL version 423,2013-02-27 20:36:00,
2013-02-27 15:41:00,33.4,32.2,29.26,North,355,3.8,7.2,96,-99.99,,,-99.99,WSDL version 423,2013-02-27 20:41:00,
2013-02-27 15:46:00,33.4,32.5,29.26,North,3,5.6,9.2,97,-99.99,,,-99.99,WSDL version 423,2013-02-27 20:46:00,
2013-02-27 15:56:00,33.4,33.1,29.26,North,349,5.3,9.6,99,-99.99,,,-99.99,WSDL version 423,2013-02-27 20:56:00,
2013-02-27 16:06:00,33.4,33.2,29.26,NNW,343,6.8,13.2,99,-99.99,,,-99.99,WSDL version 423,2013-02-27 21:06:00,
2013-02-27 16:11:00,33.6,33.3,29.26,North,353,5.8,10.1,99,-99.99,,,-99.99,WSDL version 423,2013-02-27 21:11:00,
2013-02-27 16:16:00,33.6,33.3,29.26,NNE,20,4.3,10.1,99,-99.99,,,-99.99,WSDL version 423,2013-02-27 21:16:00,
2013-02-27 16:21:00,33.6,33.3,29.26,North,6,4.1,7.4,99,-99.99,,,-99.99,WSDL version 423,2013-02-27 21:21:00,
2013-02-27 16:26:00,33.6,33.3,29.26,North,358,5.1,8.7,99,-99.99,,,-99.99,WSDL version 423,2013-02-27 21:26:00,
2013-02-27 16:36:00,33.6,33.3,29.26,North,352,5.0,10.1,99,-99.99,,,-99.99,WSDL version 423,2013-02-27 21:36:00,
2013-02-27 16:41:00,33.6,33.5,29.23,NNW,346,4.4,10.1,100,-99.99,,,-99.99,WSDL version 423,2013-02-27 21:41:00,
2013-02-27 16:51:00,33.4,33.4,29.23,NNW,348,7.2,10.7,100,-99.99,,,-99.99,WSDL version 423,2013-02-27 21:51:00,
2013-02-27 16:56:00,33.3,33.3,29.23,North,354,5.6,10.7,100,-99.99,,,-99.99,WSDL version 423,2013-02-27 21:56:00,
2013-02-27 17:01:00,33.3,33.3,29.23,North,5,7.0,11.0,100,-99.99,,,-99.99,WSDL version 423,2013-02-27 22:01:00,
2013-02-27 17:06:00,33.3,33.3,29.23,NNW,346,5.6,11.0,100,-99.99,,,-99.99,WSDL version 423,2013-02-27 22:06:00,
2013-02-27 17:11:00,33.2,33.2,29.23,North,353,5.0,10.7,100,-99.99,,,-99.99,WSDL version 423,2013-02-27 22:11:00,
2013-02-27 17:16:00,33.1,33.1,29.23,North,358,4.9,10.7,100,-99.99,,,-99.99,WSDL version 423,2013-02-27 22:16:00,
2013-02-27 17:21:00,33.1,33.1,29.23,NNW,346,6.9,10.1,100,-99.99,,,-99.99,WSDL version 423,2013-02-27 22:21:00,
2013-02-27 17:26:00,32.9,32.9,29.23,NNW,335,5.4,8.7,100,-99.99,,,-99.99,WSDL version 423,2013-02-27 22:26:00,
2013-02-27 17:31:00,32.9,32.9,29.23,North,352,5.5,8.5,100,-99.99,,,-99.99,WSDL version 423,2013-02-27 22:31:00,
2013-02-27 17:36:00,32.9,32.9,29.23,North,354,3.9,8.7,100,-99.99,,,-99.99,WSDL version 423,2013-02-27 22:36:00,
2013-02-27 17:41:00,32.8,32.8,29.23,NNW,346,4.4,8.7,100,-99.99,,,-99.99,WSDL version 423,2013-02-27 22:41:00,
2013-02-27 17:46:00,32.7,32.7,29.23,North,358,4.5,8.5,100,-99.99,,,-99.99,WSDL version 423,2013-02-27 22:46:00,
2013-02-27 17:56:00,32.7,32.7,29.23,North,354,5.5,10.7,100,-99.99,,,-99.99,WSDL version 423,2013-02-27 22:56:00,
2013-02-27 18:01:00,32.7,32.7,29.23,North,353,3.5,9.8,100,-99.99,,,-99.99,WSDL version 423,2013-02-27 23:01:00,
2013-02-27 18:06:00,32.7,32.7,29.23,North,360,4.1,13.2,100,-99.99,,,-99.99,WSDL version 423,2013-02-27 23:06:00,
2013-02-27 18:16:00,32.7,32.7,29.23,North,352,5.8,7.6,100,-99.99,,,-99.99,WSDL version 423,2013-02-27 23:16:00,
2013-02-27 18:21:00,32.7,32.7,29.23,North,360,4.8,7.6,100,-99.99,,,-99.99,WSDL version 423,2013-02-27 23:21:00,
2013-02-27 18:26:00,32.7,32.7,29.26,North,360,4.6,9.6,100,-99.99,,,-99.99,WSDL version 423,2013-02-27 23:26:00,
2013-02-27 18:31:00,32.7,32.7,29.26,North,352,5.6,9.6,100,-99.99,,,-99.99,WSDL version 423,2013-02-27 23:31:00,
2013-02-27 18:41:00,32.7,32.7,29.23,NNW,344,5.3,8.1,100,-99.99,,,-99.99,WSDL version 423,2013-02-27 23:41:00,
2013-02-27 18:46:00,32.7,32.7,29.23,NNW,345,5.3,8.5,100,-99.99,,,-99.99,WSDL version 423,2013-02-27 23:46:00,
2013-02-27 18:51:00,32.6,32.6,29.23,North,354,6.7,11.4,100,-99.99,,,-99.99,WSDL version 423,2013-02-27 23:51:00,
2013-02-27 18:56:00,32.5,32.5,29.23,North,355,6.5,11.4,100,-99.99,,,-99.99,WSDL version 423,2013-02-27 23:56:00,
2013-02-27 19:01:00,32.5,32.5,29.23,North,360,5.7,10.7,100,-99.99,,,-99.99,WSDL version 423,2013-02-28 00:01:00,
2013-02-27 19:06:00,32.5,32.5,29.23,NNW,347,5.9,8.7,100,-99.99,,,-99.99,WSDL version 423,2013-02-28 00:06:00,
2013-02-27 19:11:00,32.4,32.4,29.23,NNW,340,4.4,8.5,100,-99.99,,,-99.99,WSDL version 423,2013-02-28 00:11:00,
2013-02-27 19:16:00,32.3,32.3,29.23,North,349,5.2,9.8,100,-99.99,,,-99.99,WSDL version 423,2013-02-28 00:16:00,
2013-02-27 19:21:00,32.2,32.2,29.23,North,358,5.9,10.3,100,-99.99,,,-99.99,WSDL version 423,2013-02-28 00:21:00,
2013-02-27 19:26:00,32.2,32.2,29.23,NW,321,4.1,10.3,100,-99.99,,,-99.99,WSDL version 423,2013-02-28 00:26:00,
2013-02-27 19:31:00,32.2,32.2,29.23,North,350,5.3,9.8,100,-99.99,,,-99.99,WSDL version 423,2013-02-28 00:31:00,
2013-02-27 19:36:00,32.2,32.2,29.23,NNW,345,5.8,8.7,100,-99.99,,,-99.99,WSDL version 423,2013-02-28 00:36:00,
2013-02-27 19:41:00,32.2,32.2,29.23,NNW,340,3.8,10.3,100,-99.99,,,-99.99,WSDL version 423,2013-02-28 00:41:00,
2013-02-27 19:46:00,32.1,32.1,29.23,North,358,4.2,10.3,100,-99.99,,,-99.99,WSDL version 423,2013-02-28 00:46:00,
2013-02-27 19:51:00,32.0,32.0,29.23,North,3,5.7,10.3,100,-99.99,,,-99.99,WSDL version 423,2013-02-28 00:51:00,
2013-02-27 19:56:00,32.0,32.0,29.21,North,358,5.5,10.3,100,-99.99,,,-99.99,WSDL version 423,2013-02-28 00:56:00,
2013-02-27 20:01:00,31.9,31.9,29.21,NNW,345,3.4,10.1,100,-99.99,,,-99.99,WSDL version 423,2013-02-28 01:01:00,
2013-02-27 20:06:00,31.8,31.8,29.21,North,9,4.6,8.7,100,-99.99,,,-99.99,WSDL version 423,2013-02-28 01:06:00,
2013-02-27 20:11:00,31.8,31.8,29.21,North,350,4.8,8.1,100,-99.99,,,-99.99,WSDL version 423,2013-02-28 01:11:00,
2013-02-27 20:16:00,31.8,31.8,29.21,North,357,4.4,8.1,100,-99.99,,,-99.99,WSDL version 423,2013-02-28 01:16:00,
2013-02-27 20:21:00,31.8,31.8,29.21,North,360,4.2,8.1,100,-99.99,,,-99.99,WSDL version 423,2013-02-28 01:21:00,
2013-02-27 20:26:00,31.8,31.8,29.21,North,354,3.9,8.1,100,-99.99,,,-99.99,WSDL version 423,2013-02-28 01:26:00,
2013-02-27 20:31:00,31.8,31.8,29.21,North,357,4.3,8.5,100,-99.99,,,-99.99,WSDL version 423,2013-02-28 01:31:00,
2013-02-27 20:36:00,31.8,31.8,29.21,NNW,335,5.1,8.5,100,-99.99,,,-99.99,WSDL version 423,2013-02-28 01:36:00,
2013-02-27 20:41:00,31.8,31.8,29.21,NNE,17,4.1,7.2,100,-99.99,,,-99.99,WSDL version 423,2013-02-28 01:41:00,
2013-02-27 20:46:00,31.8,31.8,29.21,North,3,4.6,8.7,100,-99.99,,,-99.99,WSDL version 423,2013-02-28 01:46:00,
2013-02-27 20:51:00,31.8,31.8,29.21,North,11,4.4,8.7,100,-99.99,,,-99.99,WSDL version 423,2013-02-28 01:51:00,
2013-02-27 20:56:00,31.8,31.8,29.21,North,353,3.7,7.8,100,-99.99,,,-99.99,WSDL version 423,2013-02-28 01:56:00,
2013-02-27 21:01:00,31.9,31.9,29.21,North,360,4.1,7.8,100,-99.99,,,-99.99,WSDL version 423,2013-02-28 02:01:00,
2013-02-27 21:06:00,31.9,31.9,29.21,NNW,344,3.3,7.6,100,-99.99,,,-99.99,WSDL version 423,2013-02-28 02:06:00,
2013-02-27 21:11:00,32.0,32.0,29.21,NNW,343,4.6,7.6,100,-99.99,,,-99.99,WSDL version 423,2013-02-28 02:11:00,
2013-02-27 21:16:00,32.0,32.0,29.21,North,3,5.1,7.6,100,-99.99,,,-99.99,WSDL version 423,2013-02-28 02:16:00,
2013-02-27 21:21:00,32.0,32.0,29.21,North,360,4.9,11.0,100,-99.99,,,-99.99,WSDL version 423,2013-02-28 02:21:00,
2013-02-27 21:26:00,32.0,32.0,29.18,North,358,5.5,11.0,100,-99.99,,,-99.99,WSDL version 423,2013-02-28 02:26:00,
2013-02-27 21:31:00,32.0,32.0,29.18,North,3,4.3,8.5,100,-99.99,,,-99.99,WSDL version 423,2013-02-28 02:31:00,
2013-02-27 21:36:00,32.0,32.0,29.18,NW,326,5.1,10.1,100,-99.99,,,-99.99,WSDL version 423,2013-02-28 02:36:00,
2013-02-27 21:41:00,31.9,31.9,29.18,NNW,348,4.6,10.1,100,-99.99,,,-99.99,WSDL version 423,2013-02-28 02:41:00,
2013-02-27 21:46:00,31.8,31.8,29.18,NNW,344,3.5,9.2,100,-99.99,,,-99.99,WSDL version 423,2013-02-28 02:46:00,
2013-02-27 21:51:00,31.8,31.8,29.18,NNW,348,3.7,7.6,100,-99.99,,,-99.99,WSDL version 423,2013-02-28 02:51:00,
2013-02-27 21:56:00,31.8,31.8,29.18,NNW,340,3.8,7.2,100,-99.99,,,-99.99,WSDL version 423,2013-02-28 02:56:00,
2013-02-27 22:01:00,31.8,31.8,29.18,NNE,17,3.6,7.2,100,-99.99,,,-99.99,WSDL version 423,2013-02-28 03:01:00,
2013-02-27 22:06:00,31.8,31.8,29.18,North,5,3.7,6.0,100,-99.99,,,-99.99,WSDL version 423,2013-02-28 03:06:00,
2013-02-27 22:11:00,31.6,31.6,29.18,North,8,2.9,5.8,100,-99.99,,,-99.99,WSDL version 423,2013-02-28 03:11:00,
2013-02-27 22:16:00,31.6,31.6,29.18,North,5,3.6,6.5,100,-99.99,,,-99.99,WSDL version 423,2013-02-28 03:16:00,
2013-02-27 22:21:00,31.6,31.6,29.18,NNW,346,3.0,6.5,100,-99.99,,,-99.99,WSDL version 423,2013-02-28 03:21:00,
2013-02-27 22:26:00,31.5,31.5,29.18,NNW,345,3.4,5.4,100,-99.99,,,-99.99,WSDL version 423,2013-02-28 03:26:00,
2013-02-27 22:31:00,31.5,31.5,29.18,North,3,3.8,5.6,100,-99.99,,,-99.99,WSDL version 423,2013-02-28 03:31:00,
2013-02-27 22:36:00,31.5,31.5,29.18,North,360,3.1,9.6,100,-99.99,,,-99.99,WSDL version 423,2013-02-28 03:36:00,
2013-02-27 22:41:00,31.5,31.5,29.18,North,3,3.8,9.6,100,-99.99,,,-99.99,WSDL version 423,2013-02-28 03:41:00,
2013-02-27 22:46:00,31.5,31.5,29.18,North,360,3.2,5.8,100,-99.99,,,-99.99,WSDL version 423,2013-02-28 03:46:00,
2013-02-27 22:51:00,31.5,31.5,29.18,NNW,343,3.5,6.0,100,-99.99,,,-99.99,WSDL version 423,2013-02-28 03:51:00,
2013-02-27 22:56:00,31.5,31.5,29.15,NNW,343,2.9,6.0,100,-99.99,,,-99.99,WSDL version 423,2013-02-28 03:56:00,
2013-02-27 23:01:00,31.4,31.4,29.15,NNW,345,2.6,4.9,100,-99.99,,,-99.99,WSDL version 423,2013-02-28 04:01:00,
2013-02-27 23:06:00,31.3,31.3,29.15,North,10,3.4,5.8,100,-99.99,,,-99.99,WSDL version 423,2013-02-28 04:06:00,
2013-02-27 23:11:00,31.3,31.3,29.15,North,349,3.1,5.8,100,-99.99,,,-99.99,WSDL version 423,2013-02-28 04:11:00,
2013-02-27 23:16:00,31.3,31.3,29.15,NNW,343,3.0,5.8,100,-99.99,,,-99.99,WSDL version 423,2013-02-28 04:16:00,
2013-02-27 23:21:00,31.3,31.3,29.15,North,360,3.0,5.8,100,-99.99,,,-99.99,WSDL version 423,2013-02-28 04:21:00,
2013-02-27 23:26:00,31.3,31.3,29.15,North,352,3.8,6.5,100,-99.99,,,-99.99,WSDL version 423,2013-02-28 04:26:00,
2013-02-27 23:31:00,31.2,31.2,29.15,NNW,340,3.3,6.5,100,-99.99,,,-99.99,WSDL version 423,2013-02-28 04:31:00,
2013-02-27 23:36:00,31.1,31.1,29.15,NNW,340,2.5,6.3,100,-99.99,,,-99.99,WSDL version 423,2013-02-28 04:36:00,
2013-02-27 23:41:00,31.1,31.1,29.15,NNW,335,3.0,6.3,100,-99.99,,,-99.99,WSDL version 423,2013-02-28 04:41:00,
2013-02-27 23:46:00,31.1,31.1,29.15,North,8,2.5,4.5,100,-99.99,,,-99.99,WSDL version 423,2013-02-28 04:46:00,
2013-02-27 23:51:00,31.1,31.1,29.15,NNW,345,2.4,4.3,100,-99.99,,,-99.99,WSDL version 423,2013-02-28 04:51:00,
2013-02-27 23:56:00,31.1,31.1,29.12,North,354,3.1,6.0,100,-99.99,,,-99.99,WSDL version 423,2013-02-28 04:56:00,